Location: Fours
(44.3167°N, 6.7000°E)
Time: 05:19:11
(UTC+00:00)

Cosmos 2218 Rocket - Pass Details

Date: 02 June 2022
Orbit: 956 x 1005 km, 82.9° (Epoch: 03 July)

Event Time Altitude Azimuth Distance (km) Brightness Sun altitude
Rises 01:19:53 0° 356° (N) 3,684 8.1 -19.0°
Reaches altitude 10° 01:22:31 10° 3° (N) 2,740 7.3 -18.8°
Maximum altitude 01:28:33 46° 76° (ENE) 1,305 4.9 -18.3°
Drops below altitude 10° 01:34:35 10° 149° (SSE) 2,754 6.1 -17.8°
Enters shadow 01:36:10 - 153° (SSE) 3,317 6.5 -17.6°
